User: anonymous   Login
Location: Strohbehn Observatory
(42.4649°N, 93.8239°W)
Time: 22:41:40
(UTC-06:00)
Language:

SL-16 R/B - Orbit

View from above orbital plane
View from above orbital plane
View from above satellite
View from above satellite

Ground track
Ground track

The orbit data is extracted from the following two-line orbital elements,

1 31793U 07029B   17018.84944988  .00000132  00000-0  93749-4 0  9994
2 31793  70.9774 342.8450 0002397 281.4856  97.1926 14.14378904493607
Epoch (UTC): 18 January 2017 20:23:12
Eccentricity: 0.0002397
inclination: 70.9774°
perigee height: 842 km
apogee height: 846 km
right ascension of ascending node: 342.8450°
argument of perigee: 281.4856°
revolutions per day: 14.14378904
mean anomaly at epoch: 97.1926°
orbit number at epoch: 49360

The dashed part of the orbit path shows where the satellite is in the earth's shadow,  

DLR